Weather History for Ely, NV

Change the Weather History Date:

Wednesday, December 19, 2012

  Actual Average Record
Temperature  
Mean Temperature -3 °F 25 °F  
Max Temperature 12 °F 39 °F 67 °F (1910)
Min Temperature -18 °F 10 °F -18 °F (2012)
Degree Days  
Heating Degree Days 68 40  
Month to date heating degree days 641 746  
Since 1 July heating degree days 2063 2614  
Cooling Degree Days 0 0  
Month to date cooling degree days 0 0  
Year to date cooling degree days 314 218  
Moisture  
Dew Point -6 °F    
Average Humidity 83    
Maximum Humidity 95    
Minimum Humidity 70    
Precipitation  
Precipitation 0.47 in 0.02 in 0.56 in (2010)
Month to date precipitation 1.74 0.33  
Year to date precipitation 12.26 9.50  
Snow  
Snow 0.00 in 0.30 in 5.20 in (2013)
Month to date snowfall 15.8 4.5  
Since 1 July snowfall 25.8 14.0  
Snow Depth 12.00 in    
Sea Level Pressure  
Sea Level Pressure 30.41 in    
Wind  
Wind Speed 9 mph (South)    
Max Wind Speed 17 mph    
Max Gust Speed 20 mph    
Visibility 10 miles    
Events      
T = Trace of Precipitation, MM = Missing Value Source: NWS Daily Summary

Daily Weather History Graph

Daily Weather History Graph

Search for Another Location

Airport:

Trip Planner

Search our weather history database for the weather conditions in past years. The results will help you decide how hot, cold, wet, or windy it might be!

Date:

Astronomy

Dec. 19, 2012 Rise Set
Actual Time 6:54 AM PST 4:18 PM PST
Civil Twilight 6:24 AM PST 4:49 PM PST
Nautical Twilight 5:50 AM PST 5:22 PM PST
Astronomical Twilight 5:18 AM PST 5:55 PM PST
Moon 11:08 AM PST (12/19) 11:48 PM PST (12/19)
Length of Visible Light 10h 24m
Length of Day
9h 24m
Waxing Crescent, 46% of the Moon is Illuminated
Dec 19
Waxing Crescent
Dec 19
First Quarter
Dec 28
Full
Jan 4
Last Quarter
Jan 11
New

Hourly Weather History & Observations

Time (PST) Temp. Windchill Dew Point Humidity Pressure Visibility Wind Dir Wind Speed Gust Speed Precip Events Conditions
12:53 AM 8.1 °F -6.2 °F 5.0 °F 87% 30.00 in 10.0 mi NNW 10.4 mph - 0.00 in   Partly Cloudy
1:53 AM 3.0 °F - -0.9 °F 84% 30.06 in 10.0 mi Calm Calm - 0.02 in   Partly Cloudy
2:53 AM -0.0 °F -13.0 °F -2.9 °F 88% 30.10 in 10.0 mi NNE 6.9 mph - 0.02 in   Clear
3:53 AM -11.0 °F -20.4 °F -13.0 °F 91% 30.19 in 10.0 mi South 3.5 mph - 0.04 in   Clear
4:53 AM -16.1 °F - -18.0 °F 91% 30.25 in 10.0 mi Calm Calm - 0.07 in   Clear
5:53 AM -14.1 °F -28.3 °F -17.0 °F 87% 30.30 in 10.0 mi SSE 5.8 mph - 0.06 in   Clear
6:53 AM -17.0 °F -34.8 °F -20.0 °F 86% 30.36 in 10.0 mi South 8.1 mph - 0.05 in   Clear
7:53 AM -13.0 °F -30.0 °F -15.0 °F 91% 30.37 in 10.0 mi South 8.1 mph - 0.08 in   Clear
9:53 AM -0.0 °F -14.2 °F -4.0 °F 83% 30.39 in 10.0 mi South 8.1 mph - 0.01 in   Clear
10:53 AM 3.9 °F -10.4 °F -0.0 °F 84% 30.38 in 10.0 mi SSE 9.2 mph - N/A   Clear
11:53 AM 8.1 °F -3.2 °F 3.9 °F 83% 30.39 in 10.0 mi South 6.9 mph - N/A   Clear
12:53 PM 10.0 °F -3.7 °F 3.9 °F 76% 30.41 in 10.0 mi South 10.4 mph - N/A   Clear
1:53 PM 12.0 °F -0.4 °F 5.0 °F 73% 30.43 in 10.0 mi South 9.2 mph - N/A   Clear
2:53 PM 10.0 °F -4.5 °F 3.0 °F 73% 30.47 in 10.0 mi SSW 11.5 mph - N/A   Clear
3:53 PM 6.1 °F -10.2 °F -0.0 °F 76% 30.53 in 10.0 mi South 12.7 mph - N/A   Clear
4:53 PM 1.9 °F -14.7 °F -2.0 °F 83% 30.60 in 10.0 mi South 11.5 mph - N/A   Clear
5:53 PM -2.2 °F -18.9 °F -7.6 °F 78% 30.25 in 10.0 mi South 10.4 mph - N/A   Clear
6:53 PM -5.1 °F -23.5 °F -9.9 °F 80% 30.68 in 10.0 mi South 11.5 mph - N/A   Clear
7:53 PM -0.9 °F -19.1 °F -6.0 °F 79% 30.67 in 10.0 mi South 12.7 mph - N/A   Clear
8:53 PM -5.1 °F -22.5 °F -9.0 °F 83% 30.66 in 10.0 mi South 10.4 mph - N/A   Clear
9:53 PM -7.1 °F -26.8 °F -11.9 °F 79% 30.65 in 10.0 mi SSE 12.7 mph - N/A   Clear
10:53 PM -5.1 °F -23.5 °F -11.0 °F 76% 30.62 in 10.0 mi South 11.5 mph - N/A   Clear
11:53 PM -7.1 °F -26.8 °F -11.9 °F 79% 30.60 in 10.0 mi SSE 12.7 mph - N/A   Clear